Wind_Speed
34 36 38 38 39 40 40 40 41 41 42 42 41 41 41 40 39 39 38 39 40 40 40 40 39 40 43 47 49 49 48 48 49 49 51 54 58 62 63 61 60 58 57 56 54 53 53 55 58 60 59 57 55 54 54 55 56 57 56 55 54 54 54 53 51 49 48 48 47
35 38 39 39 39 40 40 40 41 42 42 42 43 42 42 41 40 39 38 38 40 41 41 40 37 37 41 47 50 50 49 49 49 50 51 54 59 63 64 61 58 56 55 55 54 55 55 57 59 60 60 60 59 57 56 56 56 56 54 52 52 54 55 53 50 48 47 47 47
35 38 39 40 39 39 40 40 40 41 41 41 42 42 42 42 40 39 38 39 40 41 40 39 37 37 40 46 50 51 50 49 50 51 52 55 60 64 65 64 61 57 55 55 56 57 58 59 60 60 61 62 62 60 58 57 57 55 52 50 52 55 57 55 50 47 47 48 48
33 34 35 36 36 36 37 37 38 38 39 39 40 40 41 41 40 39 39 39 40 40 40 39 37 36 39 46 50 52 51 51 51 52 53 56 60 65 67 67 65 62 59 58 57 57 56 56 57 58 60 62 62 60 57 57 56 53 50 50 54 58 59 56 52 49 48 50 50
29 29 30 30 30 30 31 32 33 35 35 36 37 38 38 38 38 38 38 39 38 38 38 38 36 36 39 46 51 52 52 53 53 54 55 57 62 66 68 69 67 65 63 61 58 56 53 52 51 54 57 60 61 59 56 55 54 51 50 53 57 61 60 57 53 51 51 52 52
27 27 27 27 27 27 28 29 30 31 32 33 35 36 36 37 37 37 37 37 37 37 37 36 35 35 40 48 51 53 53 55 56 58 59 61 64 67 69 68 66 64 63 61 58 55 51 49 49 51 54 58 60 58 55 53 51 51 53 56 60 60 58 54 52 52 53 53 52
28 28 28 28 28 28 28 29 30 31 32 33 34 35 35 35 36 36 36 36 35 35 35 35 34 36 42 49 53 54 55 57 59 61 63 64 66 68 68 66 64 62 61 59 56 53 50 49 49 51 55 58 61 60 56 53 53 54 56 58 58 55 52 50 52 53 53 53 51
29 29 30 30 30 30 31 32 33 34 34 34 34 34 34 33 34 34 34 34 35 35 35 34 34 37 44 50 54 56 57 59 60 62 63 65 66 67 66 64 61 59 56 55 53 52 51 52 53 55 58 60 62 62 59 57 57 58 58 57 53 49 47 48 50 51 52 51 50
28 29 30 30 31 32 33 34 35 36 36 35 34 33 32 31 31 32 33 34 35 34 34 33 35 39 46 51 55 57 58 59 59 60 61 63 64 64 63 60 58 55 53 52 53 54 55 56 58 58 58 59 61 63 62 61 59 59 57 53 49 46 46 47 48 48 48 48 48
27 28 28 30 31 32 33 33 34 34 35 35 34 33 32 31 31 31 32 33 33 33 33 33 36 42 48 53 55 57 58 57 57 58 59 60 61 61 59 56 54 52 51 52 54 55 57 59 61 59 55 55 58 61 62 62 60 58 55 51 47 45 45 45 45 45 45 45 46
27 27 28 29 30 31 31 30 31 32 33 34 35 34 33 32 32 32 32 32 32 32 33 35 39 44 49 53 56 57 56 55 54 55 56 57 57 57 55 53 51 50 50 51 53 54 56 59 61 58 54 53 56 59 61 61 60 58 55 51 47 44 43 43 43 42 42 42 43
27 27 27 28 29 29 28 28 28 30 31 33 34 35 35 34 33 32 32 32 33 33 35 37 41 46 50 53 56 56 54 52 51 51 52 53 53 52 51 50 49 48 48 49 50 52 53 56 58 59 57 56 57 59 60 60 59 58 56 51 46 42 41 41 41 40 40 39 40
27 27 28 28 28 27 27 26 27 28 30 32 33 34 35 34 33 32 32 33 35 36 37 40 43 47 50 53 55 54 52 49 48 48 48 48 48 48 48 48 47 47 47 47 48 50 52 54 57 60 60 60 60 60 60 59 60 59 56 51 45 41 39 38 38 38 38 37 38
26 27 27 28 27 27 27 27 27 28 29 31 32 33 34 33 32 32 32 34 37 39 41 43 45 47 51 53 52 50 47 45 45 45 44 44 43 43 44 45 45 46 47 47 48 50 52 55 58 61 63 63 61 60 59 59 60 61 57 50 44 40 38 38 38 38 37 37 38
25 26 27 27 27 27 27 28 28 28 29 30 31 33 33 33 32 32 33 34 37 41 44 45 46 48 49 50 48 46 44 43 43 43 42 41 40 39 39 41 43 44 46 47 48 49 50 53 57 62 65 65 63 61 60 60 62 61 56 49 44 40 39 38 38 39 39 39 39
25 26 27 27 28 28 28 29 29 29 29 30 32 34 34 34 33 32 31 31 35 41 46 47 46 46 46 45 45 45 45 45 43 42 41 40 39 38 38 39 41 43 44 44 44 45 46 48 53 59 64 66 65 63 62 63 63 59 53 47 44 42 40 40 40 40 41 41 40
25 26 26 27 28 28 29 29 28 28 28 31 34 35 36 35 33 30 27 25 29 37 44 46 45 43 42 42 44 46 47 47 45 43 42 40 39 38 38 39 40 41 42 42 42 42 43 44 47 52 57 62 63 63 64 65 63 57 52 47 45 44 43 43 43 43 42 42 42
24 25 26 27 27 27 27 27 27 27 28 32 35 37 36 34 30 25 20 18 22 30 38 42 42 42 43 43 44 46 47 47 46 44 42 41 38 37 36 37 39 40 41 41 41 42 42 42 42 45 49 53 56 59 61 62 60 55 51 49 47 46 46 46 46 45 44 44 44
24 26 26 26 25 25 25 26 26 26 27 31 34 35 34 31 26 21 16 14 15 21 28 33 37 39 41 42 44 45 46 46 45 44 41 39 36 34 34 36 39 40 41 41 41 42 41 41 40 41 43 46 49 52 55 57 55 53 51 50 49 49 49 49 48 47 46 45 45
25 25 25 23 22 23 24 25 24 24 26 29 30 31 31 28 24 20 16 14 12 13 17 21 25 29 32 35 38 40 42 43 43 41 39 36 35 35 35 37 40 41 42 42 42 41 40 39 39 40 42 44 46 49 51 53 53 53 53 52 53 53 53 52 50 48 46 45 45
19 20 21 22 22 23 23 21 20 20 21 22 24 26 27 27 24 20 17 15 13 11 11 12 14 18 21 25 28 31 34 37 38 37 36 35 35 37 39 41 42 42 42 41 41 41 40 40 40 41 42 44 47 49 51 53 55 56 56 57 57 56 55 53 51 48 45 44 44
17 18 18 18 18 19 19 18 18 17 17 18 20 22 24 25 23 20 17 16 14 12 11 11 12 14 17 19 21 24 26 29 31 32 33 33 34 37 40 43 44 42 40 39 40 41 42 42 41 41 42 44 46 48 51 54 57 59 60 60 59 58 56 52 49 45 43 42 42
14 15 14 14 15 16 16 16 17 17 17 17 18 19 20 22 21 18 16 16 16 15 14 14 15 17 18 20 20 21 23 25 27 29 30 31 32 34 37 40 42 41 39 37 38 39 41 42 42 41 41 41 42 44 47 52 56 59 60 60 58 56 53 49 46 43 41 40 39
12 13 12 12 13 15 16 17 18 17 17 18 18 18 17 18 18 16 14 16 17 17 16 16 17 19 21 21 20 21 23 26 28 31 32 32 32 32 34 36 39 40 38 35 34 36 38 40 40 40 39 38 38 40 43 48 52 55 55 54 52 50 48 45 43 41 40 39 37
20 14 11 11 12 14 16 18 19 19 20 20 19 18 17 16 16 15 15 17 18 18 18 18 19 20 22 21 21 22 25 29 32 34 35 36 35 34 35 36 39 40 38 35 34 34 35 37 37 37 38 39 40 42 45 47 48 48 47 46 45 45 44 42 40 39 38 37 35
36 29 23 17 14 13 14 15 17 18 19 20 20 20 19 18 17 17 17 18 20 21 21 20 20 20 20 20 21 23 26 30 32 34 35 36 37 37 38 39 40 41 40 37 35 35 35 35 36 36 38 41 45 47 48 47 46 45 44 43 43 42 41 39 38 37 37 36 35
44 41 36 32 27 24 20 17 14 13 14 15 16 17 18 19 19 20 21 22 23 24 24 23 22 21 20 20 20 22 25 27 29 30 31 32 33 34 36 38 40 41 41 39 36 35 35 35 36 37 39 44 47 48 47 45 43 42 42 42 41 40 38 36 36 36 36 35 34
46 44 41 39 37 34 31 27 22 18 14 11 9 9 11 14 17 19 22 24 26 27 27 25 24 23 22 22 22 22 23 24 25 27 28 29 30 31 32 33 34 37 39 39 36 34 34 35 36 38 41 45 47 46 44 42 40 40 40 40 39 37 36 35 35 36 36 35 35
47 45 43 42 40 38 36 34 31 28 24 20 15 11 8 8 10 13 15 19 23 26 27 27 26 26 26 26 26 24 23 23 24 25 27 28 29 30 30 31 31 33 35 36 35 34 34 35 37 39 43 46 45 43 41 40 39 39 39 38 38 37 37 37 37 37 37 37 37
46 45 44 42 41 40 38 36 34 32 29 27 24 20 16 12 9 8 7 8 11 15 18 22 24 26 28 29 29 28 27 27 27 27 27 28 29 30 31 31 32 32 33 34 35 35 35 36 38 41 44 45 43 42 41 41 40 40 40 39 39 39 40 41 41 41 40 40 41
45 44 43 42 41 41 39 37 35 32 30 29 27 26 24 22 19 16 13 10 7 5 6 11 16 20 24 26 28 29 29 30 31 32 32 31 31 31 32 32 33 34 35 36 37 37 38 39 41 43 45 44 43 42 42 42 42 42 42 42 42 42 43 43 43 44 44 44 45
42 42 42 41 41 41 40 38 36 33 31 30 28 27 26 25 24 21 19 16 13 10 6 3 5 9 14 17 20 23 25 27 29 31 33 35 35 35 35 35 36 37 38 39 40 40 41 41 42 43 43 43 42 42 43 43 43 43 43 43 44 44 44 44 45 45 46 47 47
40 40 40 40 40 40 39 38 37 35 33 31 30 29 28 27 25 23 22 20 17 14 11 8 5 2 2 5 9 12 15 19 22 25 28 31 33 35 35 35 36 37 38 38 39 39 40 41 41 41 41 41 42 43 43 44 44 44 45 45 45 45 45 46 46 47 47 47 47
38 37 37 38 38 38 38 37 37 35 34 33 32 31 30 28 27 26 25 23 21 18 16 13 10 8 5 3 2 4 6 10 13 17 21 24 27 29 30 30 30 31 32 33 34 35 36 37 37 38 39 40 42 43 44 44 45 45 46 46 46 46 46 46 47 47 46 45 43
36 35 35 35 35 35 35 35 35 35 34 34 34 33 31 30 28 28 27 25 23 21 19 17 15 13 10 7 4 4 4 5 6 9 13 17 20 22 24 24 24 25 26 28 30 31 32 32 34 35 37 39 41 42 43 44 45 45 45 45 45 45 44 44 44 43 42 41 41
34 34 34 33 33 33 33 33 33 33 33 33 33 33 32 31 29 28 27 25 24 22 21 19 17 15 13 11 8 5 3 3 3 5 6 9 13 16 18 20 21 22 22 24 26 27 28 29 31 32 34 36 38 40 42 43 43 43 43 42 41 41 41 41 40 40 40 40 40
33 32 32 31 31 31 31 30 30 31 31 31 32 32 31 31 30 28 27 25 24 23 22 20 19 17 16 15 12 9 6 3 2 2 2 4 6 8 11 14 16 18 20 21 22 23 24 26 28 30 32 34 36 38 39 40 41 40 40 39 38 38 38 39 40 41 41 40 39
31 30 30 30 29 29 29 29 29 29 29 29 29 29 29 29 29 28 27 25 24 23 22 21 20 19 18 17 15 12 9 6 4 4 3 3 3 4 5 7 10 12 15 16 18 20 21 23 25 27 29 31 34 35 37 38 38 38 37 37 36 36 37 39 40 40 40 39 38
30 29 29 28 28 27 27 27 27 27 27 27 27 27 27 27 27 27 26 25 24 22 21 21 20 19 18 17 16 14 11 8 6 5 5 5 4 3 3 4 6 8 10 12 15 18 20 22 24 26 28 30 31 33 34 34 35 35 34 34 34 35 36 36 37 37 36 35 34
28 28 27 27 26 26 25 25 25 25 25 25 25 25 25 25 25 25 25 24 23 22 21 20 19 18 17 16 15 14 12 10 8 7 7 7 6 5 4 4 4 5 7 9 12 15 18 20 22 24 26 27 28 29 29 29 29 29 30 30 31 32 33 33 32 32 30 29 28
26 26 26 26 26 25 25 24 24 23 23 23 23 23 23 23 23 23 23 23 23 22 20 19 17 16 15 14 13 13 12 11 10 9 9 9 8 6 5 4 4 4 6 8 10 13 15 17 19 21 22 23 24 24 25 25 25 26 26 27 28 29 30 29 28 27 26 24 23
Wind_Direction
246 245 243 241 239 237 235 235 235 236 236 237 238 240 242 244 245 246 247 246 244 241 239 238 239 235 227 220 218 220 223 224 224 223 222 220 216 211 207 205 203 202 202 204 205 205 204 205 208 209 207 202 200 202 206 208 209 210 210 211 211 216 221 225 224 222 222 223 224
245 243 241 239 237 236 236 235 236 237 238 240 241 243 245 246 246 246 245 245 243 240 238 239 241 237 229 222 221 224 226 225 223 222 221 220 216 212 208 205 204 204 205 207 207 205 203 205 208 208 205 200 197 199 203 206 209 210 211 211 211 215 222 227 226 224 224 225 226
243 242 239 237 236 235 235 236 237 239 241 242 244 246 247 247 246 245 244 244 243 240 239 240 244 242 232 224 223 225 227 225 223 221 220 219 217 213 210 208 208 210 212 211 208 204 202 203 205 206 203 199 197 198 201 205 208 210 210 209 210 215 222 228 227 226 226 227 228
243 242 239 237 236 235 235 236 238 241 243 245 246 247 248 248 246 245 244 244 243 240 239 240 246 244 233 223 222 225 226 226 223 221 220 218 216 214 212 211 212 213 213 211 209 205 203 202 202 201 200 198 196 198 201 205 207 208 207 207 209 215 222 228 229 228 227 228 229
245 244 243 241 239 238 237 238 240 242 244 246 247 247 247 247 246 244 244 244 242 240 239 241 247 243 231 220 220 222 224 223 222 220 218 217 215 214 213 212 212 212 211 210 207 205 203 201 200 199 197 195 195 197 201 204 205 204 203 205 209 216 224 228 229 229 228 229 230
247 246 246 245 244 243 243 242 243 244 246 247 247 247 247 246 244 243 242 242 240 238 239 243 247 240 225 216 217 219 220 219 217 216 215 214 213 212 211 210 208 207 207 206 204 202 202 201 202 201 199 196 196 198 201 201 200 199 201 205 212 220 225 228 229 229 228 229 230
246 246 245 245 245 246 247 247 248 248 249 249 248 248 247 245 244 243 242 240 238 238 240 244 245 233 218 211 212 215 215 213 210 208 208 208 208 208 207 205 203 201 202 203 203 204 206 208 207 205 202 199 198 200 200 198 196 197 201 207 216 223 227 227 228 228 228 229 230
247 245 244 244 244 245 246 248 250 250 251 250 249 248 247 245 244 243 241 239 237 238 240 244 239 225 212 207 208 210 210 207 204 202 202 202 202 202 202 201 199 199 202 206 209 212 215 216 212 207 202 200 200 200 199 197 195 197 202 210 218 224 226 226 227 227 228 229 231
249 247 245 245 244 244 245 247 248 249 249 250 249 249 247 246 244 243 241 239 238 238 241 241 233 219 209 206 206 206 205 202 200 198 198 198 198 198 198 198 199 202 207 212 216 218 218 216 210 204 199 197 198 198 197 196 195 199 205 213 219 224 226 226 227 228 229 230 232
252 249 248 247 247 247 247 246 246 245 246 247 249 249 248 247 245 244 242 241 240 241 241 237 226 215 207 204 204 203 202 199 198 196 196 196 196 197 198 199 202 206 210 214 216 216 214 210 203 198 194 194 194 195 195 195 197 202 207 213 219 223 225 227 228 229 231 232 233
255 253 251 250 249 249 248 246 243 241 241 243 246 247 248 247 246 245 244 244 243 243 240 233 222 212 206 203 202 201 199 197 197 196 196 197 198 199 201 204 206 208 210 212 212 211 208 204 199 195 193 193 193 193 195 198 201 204 207 211 216 222 226 228 229 231 232 234 235
255 255 254 252 250 248 246 243 240 238 238 240 242 244 246 246 246 245 246 246 245 242 236 229 220 211 206 202 200 199 198 197 197 197 198 199 201 204 206 207 208 210 210 211 211 211 209 205 202 199 197 196 195 196 199 202 204 205 205 208 215 223 228 229 231 233 235 236 237
252 253 253 252 249 247 244 242 240 239 239 239 240 242 244 244 245 245 245 245 243 238 231 226 219 212 206 202 200 199 199 199 200 200 201 202 205 206 207 208 209 209 210 211 213 213 211 208 204 201 199 198 198 199 202 204 204 203 204 208 217 225 230 232 234 236 238 240 240
251 251 250 249 247 245 243 242 243 243 242 240 240 240 241 242 243 244 241 236 231 227 224 222 218 213 208 203 200 199 200 202 204 204 204 205 205 205 206 207 207 208 209 211 212 212 210 208 204 201 200 200 201 202 203 203 202 202 204 211 220 227 231 234 238 241 242 243 242
251 248 246 244 243 242 243 245 246 246 244 241 238 236 237 238 239 236 229 221 214 212 213 214 214 212 208 204 201 201 204 206 208 207 207 207 207 207 207 207 207 208 208 209 209 210 209 209 207 205 203 203 203 204 203 201 200 202 207 215 220 225 229 234 239 243 246 246 245
250 245 241 239 239 242 246 248 248 246 243 239 234 231 231 231 229 223 215 206 200 200 202 206 208 208 206 204 205 208 210 211 210 209 208 208 210 211 210 209 208 208 208 208 209 209 210 211 211 210 208 207 207 206 204 201 200 204 210 215 217 220 225 232 238 243 247 248 247
245 241 239 239 243 247 249 249 247 245 241 234 229 226 225 222 217 211 205 200 194 192 194 199 202 203 204 207 211 213 214 214 213 211 210 210 210 209 208 207 207 207 208 209 209 209 209 210 212 212 212 211 211 210 206 203 202 205 209 210 211 215 223 231 237 242 246 248 247
242 242 243 245 248 250 250 247 246 242 235 226 222 220 218 213 206 202 201 202 194 188 187 190 195 200 205 209 212 215 216 216 215 213 211 210 208 207 206 205 205 205 206 207 207 208 208 209 209 210 211 212 212 211 208 205 204 205 205 205 208 216 224 232 237 242 245 246 245
246 246 247 248 248 248 247 246 245 237 225 215 213 213 211 205 199 198 201 206 201 191 185 184 189 194 199 203 208 211 213 214 214 213 211 209 209 209 209 207 206 204 203 203 204 205 205 206 205 205 205 206 207 207 205 203 202 201 202 205 212 220 227 233 238 241 243 244 242
250 250 250 250 248 246 245 243 236 223 211 207 207 206 203 200 199 204 210 215 214 205 195 190 189 191 194 197 201 205 207 209 209 209 209 210 212 213 214 212 209 206 203 201 200 200 201 201 201 201 200 200 200 199 199 198 198 200 204 210 217 224 229 234 237 240 241 241 239
242 244 246 249 249 246 240 231 217 206 204 208 208 203 199 199 202 208 217 223 225 224 222 217 209 205 203 202 203 204 205 205 206 207 210 212 213 213 212 211 208 206 202 199 197 195 196 198 200 201 200 199 198 197 197 198 200 204 210 216 221 226 230 234 236 237 237 237 236
229 230 230 229 231 229 223 212 205 208 217 224 218 207 198 197 199 205 214 223 226 229 234 238 235 229 224 220 218 217 216 214 214 214 215 216 215 212 208 205 203 200 198 196 194 194 195 199 203 205 206 205 205 205 205 206 208 212 216 220 225 228 231 232 233 233 234 234 234
204 207 204 198 195 193 191 193 201 211 218 218 215 207 199 194 193 199 209 218 223 227 234 240 243 241 237 232 230 231 231 230 229 227 225 223 220 216 210 205 200 197 195 194 194 196 199 202 207 210 212 214 215 216 217 218 219 219 221 223 226 228 228 228 228 230 231 233 233
143 166 174 174 173 173 177 184 191 197 200 202 203 202 199 195 196 205 218 224 226 229 234 240 245 243 238 235 235 236 236 234 232 230 229 227 225 221 216 211 206 202 199 198 200 203 206 208 211 214 217 219 222 224 225 225 223 221 221 222 223 223 223 223 225 227 230 231 232
83 103 127 148 156 162 169 176 182 189 197 203 207 209 209 207 207 215 229 238 238 237 237 239 241 238 235 234 237 235 231 226 223 222 221 222 222 221 219 215 212 210 208 208 209 211 213 214 216 218 221 224 226 227 227 225 221 218 217 217 217 218 219 221 224 226 228 230 230
60 65 72 84 100 120 137 149 162 176 189 201 209 217 222 225 223 221 224 232 239 242 242 240 239 237 236 236 238 233 225 219 216 214 213 214 215 215 215 214 212 212 212 212 213 215 216 218 220 223 226 228 228 226 223 221 218 217 216 215 216 217 219 223 225 227 228 228 229
53 55 57 60 65 71 78 89 111 137 160 179 193 205 214 222 225 224 222 221 225 230 234 235 236 238 240 240 238 233 227 222 219 217 216 215 214 213 213 213 213 212 211 211 213 216 220 223 226 229 232 233 229 225 221 219 218 218 218 218 219 221 225 227 228 228 227 227 228
50 50 51 52 54 56 58 61 66 75 87 105 131 159 181 195 202 206 208 209 211 214 217 221 225 230 236 238 238 235 231 228 227 227 226 225 224 222 220 219 217 215 214 214 217 221 225 229 231 235 236 234 228 224 222 221 221 221 222 222 224 227 229 229 229 228 227 226 226
47 46 46 47 48 50 51 53 54 56 57 60 65 76 102 137 159 172 180 187 192 196 201 207 212 217 221 226 230 232 231 229 229 229 230 231 230 229 228 227 226 225 223 222 225 228 230 233 235 238 237 233 227 223 223 224 224 224 224 225 227 228 229 228 228 227 226 225 225
46 45 44 44 43 44 45 46 48 50 51 52 53 54 57 62 72 89 114 140 160 174 185 194 200 203 205 209 215 220 224 227 229 229 230 230 231 230 229 229 229 230 231 231 232 232 233 235 238 239 237 231 226 224 225 226 225 224 224 224 225 226 227 227 226 224 224 223 224
46 45 44 43 43 42 42 42 42 43 44 45 46 48 49 49 48 47 46 50 61 95 154 180 189 193 196 199 202 206 211 217 221 225 228 230 230 230 229 228 228 229 230 231 231 232 233 234 236 236 234 230 227 227 227 228 228 227 225 224 224 224 225 225 224 223 222 223 224
45 45 45 44 44 43 42 41 41 40 40 40 40 41 43 45 45 44 42 39 39 41 50 91 166 184 191 195 197 201 203 206 208 213 217 221 224 226 226 225 225 225 226 226 227 228 229 230 231 231 230 228 227 227 228 228 228 228 227 226 225 224 224 223 222 222 222 223 223
44 44 44 44 43 42 42 41 40 40 39 38 38 38 38 39 40 40 40 38 37 37 37 39 43 71 174 194 199 203 205 206 205 205 207 210 214 216 218 219 220 220 221 221 222 222 223 224 225 225 226 226 225 225 225 225 225 225 225 225 225 224 223 222 222 222 222 222 221
41 41 41 41 41 41 41 40 40 40 39 38 37 36 35 35 35 36 35 35 34 33 33 33 33 30 22 357 282 239 225 217 213 211 209 209 209 211 213 215 217 219 220 221 222 222 222 222 223 224 224 224 224 223 223 222 222 222 222 222 222 222 222 221 221 220 219 217 214
38 38 38 38 39 39 39 39 39 39 39 38 37 35 34 33 33 33 32 31 30 29 28 27 26 25 23 15 352 312 278 255 236 225 220 216 214 213 213 215 217 222 226 228 229 228 228 227 227 227 227 227 226 225 224 224 224 224 223 223 223 222 221 220 219 217 214 212 210
37 36 36 36 36 36 37 37 38 38 38 37 36 35 34 33 32 32 31 30 29 29 27 24 21 18 17 15 13 2 330 291 270 257 244 234 227 223 220 220 221 224 229 232 233 234 233 232 232 231 231 231 230 229 228 228 227 227 227 226 225 223 220 218 215 213 212 211 212
35 35 34 34 34 34 34 35 36 37 37 37 35 34 33 32 31 30 29 29 29 29 29 27 23 20 16 13 12 12 11 5 347 320 298 277 260 248 241 236 233 232 232 232 233 233 233 233 233 233 233 232 231 231 230 229 227 226 225 224 222 220 217 214 213 213 213 215 218
31 32 32 32 32 31 31 32 33 35 36 36 35 34 33 32 30 29 28 27 27 28 29 30 29 27 23 18 14 10 8 11 21 28 21 1 328 297 278 266 256 248 242 237 234 232 232 233 234 234 232 231 229 228 226 225 223 221 220 219 217 215 214 213 214 215 218 221 226
26 27 28 29 29 29 29 29 30 31 32 33 34 34 33 33 31 29 27 26 25 25 27 29 31 31 29 25 21 15 10 8 18 32 36 30 18 355 330 313 290 270 256 245 237 233 231 232 233 232 230 228 226 224 222 220 218 216 216 215 214 215 215 217 218 220 223 227 231
21 21 22 23 24 25 26 26 26 26 26 28 30 31 32 32 31 30 28 27 25 24 24 25 27 28 29 28 26 23 18 14 17 29 37 36 33 24 7 347 318 289 266 251 238 231 228 228 229 229 228 226 224 222 221 219 218 217 217 217 219 220 221 222 223 223 224 224 225
20 19 18 18 19 20 21 23 23 22 22 22 23 25 27 28 28 29 28 27 26 25 24 23 23 24 25 27 27 27 26 23 22 26 32 34 33 29 19 1 329 295 270 252 237 229 225 225 226 227 227 227 226 226 226 226 225 225 225 225 226 226 224 221 219 216 214 210 207
Height
1376 1377 1377 1378 1379 1380 1381 1382 1383 1384 1385 1386 1387 1388 1389 1390 1390 1391 1391 1392 1392 1393 1394 1395 1396 1397 1398 1398 1399 1400 1401 1403 1405 1406 1409 1411 1413 1415 1416 1417 1418 1419 1421 1422 1424 1425 1427 1430 1433 1436 1440 1443 1448 1453 1458 1461 1463 1465 1467 1469 1471 1473 1475 1476 1477 1479 1481 1482 1484
1374 1375 1375 1376 1376 1377 1378 1379 1380 1381 1382 1383 1384 1385 1386 1387 1387 1388 1389 1389 1390 1391 1392 1393 1394 1395 1396 1395 1396 1397 1399 1400 1402 1404 1406 1408 1411 1412 1414 1415 1416 1418 1419 1420 1422 1424 1425 1427 1430 1434 1437 1441 1446 1451 1455 1459 1462 1464 1466 1467 1470 1472 1474 1475 1476 1478 1480 1481 1483
1372 1372 1373 1373 1374 1375 1376 1376 1377 1378 1379 1380 1381 1382 1383 1384 1385 1386 1386 1387 1387 1389 1390 1391 1392 1393 1393 1392 1393 1394 1396 1397 1399 1401 1403 1406 1408 1410 1411 1413 1415 1416 1417 1419 1421 1422 1423 1424 1427 1431 1435 1439 1444 1448 1452 1456 1460 1462 1463 1465 1468 1471 1473 1473 1475 1477 1479 1480 1482
1369 1370 1370 1371 1371 1372 1373 1374 1375 1376 1376 1377 1379 1380 1381 1381 1382 1383 1384 1385 1386 1386 1387 1388 1389 1390 1390 1390 1390 1391 1393 1394 1396 1398 1400 1402 1405 1407 1408 1410 1412 1414 1415 1417 1419 1421 1422 1423 1425 1428 1432 1436 1441 1446 1450 1454 1457 1459 1461 1463 1466 1469 1471 1472 1474 1476 1477 1479 1480
1367 1367 1368 1368 1369 1370 1371 1372 1373 1374 1375 1376 1376 1377 1378 1379 1380 1381 1381 1382 1383 1384 1385 1386 1387 1388 1388 1387 1387 1388 1390 1392 1393 1395 1397 1400 1402 1404 1405 1407 1409 1410 1412 1414 1417 1419 1421 1423 1425 1427 1430 1434 1439 1443 1448 1451 1454 1456 1458 1462 1465 1467 1468 1470 1472 1474 1476 1477 1478
1365 1366 1366 1367 1367 1368 1369 1370 1371 1372 1373 1373 1374 1375 1375 1376 1377 1378 1379 1380 1381 1382 1383 1384 1385 1386 1386 1385 1385 1386 1388 1390 1391 1393 1394 1396 1399 1401 1403 1404 1406 1407 1409 1412 1415 1418 1420 1421 1424 1426 1430 1434 1437 1441 1445 1448 1450 1452 1456 1461 1463 1465 1466 1468 1470 1472 1474 1475 1476
1364 1365 1365 1366 1367 1367 1368 1368 1369 1370 1371 1371 1372 1372 1373 1374 1375 1376 1376 1378 1379 1380 1381 1382 1383 1384 1384 1382 1383 1384 1386 1388 1389 1391 1392 1394 1396 1397 1400 1401 1404 1405 1407 1410 1413 1416 1418 1420 1423 1426 1429 1433 1436 1439 1441 1443 1446 1449 1454 1458 1460 1462 1464 1466 1468 1470 1471 1472 1474
1363 1363 1364 1365 1366 1366 1367 1367 1367 1368 1369 1369 1369 1370 1371 1371 1372 1373 1375 1376 1377 1378 1379 1380 1381 1382 1381 1381 1381 1382 1384 1386 1387 1389 1390 1391 1393 1395 1397 1399 1401 1404 1406 1409 1412 1415 1416 1418 1421 1424 1426 1429 1432 1435 1437 1440 1443 1447 1451 1455 1458 1460 1462 1464 1466 1467 1468 1470 1471
1361 1362 1362 1363 1364 1365 1365 1366 1366 1366 1366 1366 1367 1367 1369 1370 1371 1372 1373 1374 1375 1376 1377 1378 1379 1380 1380 1379 1380 1381 1382 1384 1385 1386 1388 1389 1391 1393 1395 1398 1400 1403 1405 1408 1410 1412 1414 1416 1418 1421 1423 1425 1428 1431 1434 1438 1442 1446 1449 1453 1456 1458 1460 1461 1463 1465 1466 1468 1469
1359 1360 1361 1361 1361 1362 1363 1363 1364 1365 1365 1365 1365 1366 1367 1368 1369 1370 1371 1371 1373 1374 1375 1376 1377 1378 1378 1378 1379 1380 1381 1382 1383 1385 1386 1388 1390 1392 1394 1396 1399 1401 1404 1406 1408 1410 1411 1413 1416 1419 1421 1423 1425 1428 1433 1438 1441 1445 1448 1451 1453 1455 1457 1459 1461 1462 1464 1465 1467
1357 1358 1359 1359 1360 1360 1361 1361 1362 1363 1363 1364 1364 1364 1365 1366 1367 1368 1369 1370 1371 1372 1373 1374 1375 1376 1376 1377 1378 1379 1380 1381 1382 1384 1386 1387 1389 1391 1394 1396 1398 1400 1402 1405 1406 1408 1410 1412 1415 1417 1420 1422 1425 1429 1433 1436 1440 1442 1445 1447 1450 1452 1454 1456 1458 1460 1461 1463 1464
1356 1356 1357 1357 1358 1358 1359 1360 1360 1361 1361 1362 1363 1363 1364 1364 1365 1366 1367 1368 1369 1370 1371 1372 1373 1374 1375 1376 1376 1378 1379 1380 1382 1383 1385 1387 1389 1392 1394 1396 1398 1400 1402 1404 1406 1408 1410 1412 1415 1417 1420 1422 1426 1429 1431 1434 1436 1439 1441 1444 1447 1449 1451 1453 1455 1457 1458 1460 1462
1354 1355 1355 1356 1356 1357 1357 1358 1359 1359 1360 1360 1361 1361 1362 1363 1364 1365 1366 1366 1367 1367 1368 1370 1371 1372 1373 1374 1375 1376 1378 1380 1381 1383 1385 1387 1389 1391 1394 1396 1398 1399 1401 1403 1405 1406 1409 1411 1413 1416 1418 1421 1423 1426 1428 1431 1433 1436 1439 1441 1444 1446 1448 1450 1452 1454 1456 1458 1460
1353 1353 1354 1354 1355 1355 1356 1357 1357 1358 1358 1358 1359 1360 1361 1361 1362 1363 1364 1365 1366 1365 1366 1367 1369 1371 1371 1373 1374 1376 1378 1380 1382 1383 1385 1387 1389 1391 1393 1395 1397 1398 1400 1401 1403 1405 1407 1409 1411 1413 1416 1418 1421 1422 1425 1427 1430 1434 1436 1439 1441 1443 1445 1447 1449 1451 1453 1456 1457
1351 1351 1352 1353 1353 1354 1355 1356 1356 1356 1356 1357 1357 1358 1360 1361 1361 1362 1364 1365 1364 1364 1364 1365 1367 1369 1371 1372 1374 1376 1378 1381 1382 1384 1386 1387 1389 1391 1392 1394 1396 1397 1399 1401 1402 1404 1406 1407 1409 1411 1414 1416 1418 1420 1422 1425 1428 1431 1434 1436 1438 1440 1442 1445 1447 1449 1451 1453 1455
1350 1350 1351 1351 1352 1353 1354 1354 1354 1355 1355 1356 1356 1357 1359 1360 1361 1362 1363 1364 1363 1363 1363 1364 1366 1368 1371 1372 1374 1376 1378 1380 1381 1383 1385 1387 1388 1390 1392 1393 1395 1396 1398 1400 1401 1403 1405 1407 1409 1411 1412 1414 1416 1418 1420 1423 1426 1429 1431 1433 1436 1438 1441 1443 1445 1447 1449 1451 1453
1349 1349 1350 1351 1351 1352 1352 1352 1353 1353 1354 1355 1355 1356 1357 1358 1360 1361 1362 1363 1363 1362 1362 1364 1366 1368 1370 1372 1374 1376 1377 1379 1381 1382 1384 1386 1387 1389 1391 1392 1393 1395 1397 1399 1401 1403 1405 1406 1408 1410 1411 1413 1415 1416 1419 1422 1425 1427 1430 1432 1435 1437 1440 1442 1444 1446 1448 1450 1451
1348 1349 1349 1350 1350 1350 1351 1351 1351 1352 1353 1353 1354 1354 1356 1357 1359 1360 1361 1362 1363 1363 1363 1364 1366 1368 1370 1372 1373 1375 1376 1378 1380 1381 1383 1385 1386 1388 1390 1391 1392 1394 1396 1398 1400 1401 1403 1405 1407 1408 1410 1412 1413 1416 1418 1421 1425 1427 1430 1433 1435 1437 1439 1440 1442 1444 1446 1448 1450
1348 1348 1348 1349 1349 1349 1350 1350 1350 1351 1352 1352 1352 1353 1355 1357 1358 1360 1361 1362 1363 1364 1364 1366 1367 1369 1370 1371 1373 1374 1375 1377 1379 1381 1383 1384 1386 1387 1389 1390 1392 1393 1395 1396 1398 1400 1402 1404 1406 1407 1409 1411 1413 1415 1418 1422 1425 1428 1431 1433 1435 1436 1437 1438 1441 1443 1445 1446 1448
1347 1347 1347 1347 1348 1348 1348 1349 1350 1351 1351 1351 1352 1353 1355 1356 1358 1359 1361 1361 1363 1364 1366 1366 1368 1369 1371 1372 1373 1374 1375 1377 1378 1380 1382 1383 1385 1386 1388 1389 1390 1392 1394 1395 1397 1399 1401 1403 1405 1407 1409 1411 1413 1415 1418 1422 1426 1428 1431 1432 1433 1434 1435 1437 1439 1441 1443 1444 1446
1347 1347 1347 1347 1347 1347 1348 1348 1349 1350 1351 1351 1352 1354 1355 1356 1357 1359 1360 1361 1362 1364 1365 1367 1368 1370 1371 1372 1373 1375 1376 1377 1378 1380 1381 1382 1384 1386 1386 1387 1388 1390 1392 1394 1396 1398 1401 1403 1405 1407 1409 1411 1413 1415 1418 1421 1423 1426 1427 1428 1430 1431 1433 1435 1437 1439 1440 1441 1443
1344 1344 1345 1346 1347 1348 1348 1349 1349 1350 1351 1352 1353 1354 1355 1356 1357 1358 1360 1361 1362 1364 1366 1366 1367 1369 1371 1372 1373 1375 1376 1377 1378 1379 1381 1382 1383 1385 1386 1386 1387 1389 1391 1393 1396 1398 1400 1402 1405 1407 1409 1411 1413 1415 1417 1419 1421 1422 1424 1426 1427 1429 1431 1433 1435 1436 1437 1439 1440
1343 1344 1344 1345 1345 1346 1348 1349 1351 1351 1352 1353 1354 1355 1356 1356 1357 1358 1360 1361 1363 1365 1366 1366 1367 1368 1370 1371 1372 1374 1375 1376 1377 1379 1380 1381 1383 1384 1386 1386 1387 1388 1390 1392 1394 1397 1399 1401 1403 1406 1407 1410 1411 1414 1416 1417 1419 1420 1421 1423 1425 1426 1428 1430 1432 1433 1435 1436 1437
1343 1344 1345 1346 1346 1346 1346 1348 1349 1350 1351 1353 1354 1355 1356 1357 1358 1359 1359 1361 1363 1364 1365 1366 1367 1368 1369 1370 1371 1372 1373 1375 1376 1377 1378 1380 1381 1383 1385 1386 1387 1388 1389 1391 1393 1396 1398 1400 1402 1404 1406 1407 1409 1411 1413 1414 1416 1417 1418 1420 1422 1424 1426 1427 1429 1430 1432 1433 1434
1344 1345 1346 1346 1347 1347 1348 1348 1349 1350 1351 1352 1353 1354 1355 1356 1358 1359 1360 1361 1362 1363 1364 1365 1367 1368 1368 1369 1371 1371 1373 1374 1375 1376 1377 1378 1380 1381 1383 1385 1386 1388 1389 1390 1392 1395 1396 1398 1400 1402 1404 1406 1407 1408 1410 1411 1413 1414 1416 1418 1419 1421 1423 1425 1426 1428 1429 1430 1431
1347 1347 1348 1349 1349 1349 1349 1350 1351 1351 1352 1353 1354 1355 1356 1356 1357 1358 1360 1361 1361 1362 1363 1365 1366 1367 1368 1369 1371 1371 1372 1373 1375 1376 1377 1378 1379 1380 1382 1383 1385 1386 1388 1389 1391 1393 1395 1397 1399 1401 1402 1404 1405 1406 1408 1409 1411 1412 1414 1416 1417 1419 1421 1422 1424 1425 1426 1428 1429
1351 1352 1353 1352 1352 1352 1352 1352 1352 1352 1353 1354 1355 1355 1356 1356 1357 1357 1358 1359 1361 1362 1363 1364 1366 1366 1368 1369 1370 1371 1372 1373 1375 1376 1376 1378 1379 1380 1381 1382 1383 1384 1386 1387 1390 1392 1394 1396 1397 1399 1401 1402 1403 1404 1405 1407 1409 1411 1412 1414 1416 1417 1418 1420 1421 1423 1424 1426 1427
1354 1355 1356 1356 1355 1355 1355 1355 1354 1354 1355 1355 1356 1356 1356 1356 1357 1358 1358 1359 1359 1360 1362 1363 1365 1366 1367 1368 1369 1371 1372 1373 1374 1375 1376 1377 1378 1379 1380 1381 1382 1383 1385 1386 1388 1390 1392 1394 1396 1397 1398 1400 1400 1401 1403 1405 1407 1409 1411 1412 1413 1415 1416 1417 1419 1420 1422 1423 1425
1358 1358 1358 1357 1357 1357 1357 1357 1357 1357 1357 1358 1358 1358 1358 1358 1358 1358 1359 1359 1359 1360 1360 1361 1363 1365 1367 1368 1369 1370 1371 1372 1373 1374 1375 1376 1377 1378 1379 1381 1382 1383 1384 1386 1387 1390 1391 1393 1394 1395 1396 1397 1398 1400 1401 1403 1405 1407 1408 1410 1411 1412 1414 1415 1417 1418 1420 1421 1423
1361 1361 1360 1360 1359 1359 1359 1359 1359 1360 1360 1360 1360 1360 1360 1360 1360 1360 1360 1360 1360 1361 1361 1362 1363 1364 1365 1366 1367 1369 1370 1371 1372 1373 1374 1375 1376 1377 1378 1380 1381 1383 1384 1386 1387 1389 1390 1391 1392 1393 1394 1396 1396 1398 1399 1401 1402 1404 1405 1407 1408 1410 1412 1413 1415 1416 1418 1420 1421
1365 1365 1364 1363 1363 1362 1362 1362 1362 1362 1362 1362 1361 1361 1361 1361 1362 1362 1362 1362 1362 1362 1363 1363 1364 1364 1365 1365 1366 1367 1369 1370 1371 1372 1372 1373 1375 1376 1377 1379 1381 1382 1383 1385 1386 1387 1389 1390 1391 1392 1393 1394 1395 1396 1397 1399 1400 1401 1403 1404 1406 1407 1409 1411 1412 1414 1416 1418 1420
1369 1368 1368 1367 1367 1366 1366 1366 1366 1365 1364 1364 1363 1363 1363 1363 1364 1364 1364 1364 1364 1364 1364 1364 1365 1365 1366 1366 1366 1367 1368 1369 1370 1371 1372 1373 1374 1375 1376 1378 1380 1381 1382 1383 1385 1386 1387 1388 1389 1391 1391 1392 1393 1395 1396 1397 1398 1399 1401 1402 1403 1405 1406 1408 1410 1412 1414 1416 1418
1372 1372 1371 1371 1370 1370 1369 1369 1368 1367 1366 1366 1365 1365 1365 1365 1365 1365 1366 1366 1366 1365 1365 1365 1366 1366 1366 1366 1367 1368 1369 1369 1370 1370 1371 1372 1373 1374 1376 1377 1378 1380 1381 1382 1383 1384 1385 1386 1388 1389 1390 1391 1392 1393 1394 1395 1396 1397 1399 1400 1401 1403 1405 1406 1408 1410 1412 1414 1416
1376 1375 1374 1374 1373 1372 1371 1371 1370 1369 1369 1368 1367 1367 1367 1367 1366 1366 1366 1367 1367 1366 1366 1366 1366 1366 1366 1367 1367 1368 1369 1370 1370 1371 1371 1372 1373 1374 1375 1376 1377 1378 1379 1380 1381 1382 1384 1385 1386 1387 1388 1389 1391 1391 1392 1393 1395 1396 1397 1398 1400 1401 1403 1405 1406 1408 1410 1412 1414
1379 1378 1377 1376 1376 1375 1374 1373 1373 1372 1371 1371 1371 1370 1370 1369 1369 1369 1368 1369 1368 1368 1368 1367 1367 1367 1367 1368 1368 1369 1369 1370 1370 1371 1371 1372 1372 1373 1374 1375 1376 1377 1378 1379 1380 1381 1382 1383 1385 1386 1386 1387 1388 1389 1390 1391 1392 1393 1395 1396 1397 1399 1401 1402 1404 1406 1408 1410 1412
1383 1382 1381 1380 1379 1378 1377 1377 1376 1375 1375 1374 1374 1373 1373 1372 1372 1371 1371 1371 1370 1370 1369 1369 1369 1369 1369 1369 1369 1370 1370 1370 1370 1371 1371 1372 1372 1373 1373 1374 1375 1376 1377 1378 1379 1380 1381 1382 1382 1383 1384 1385 1386 1386 1388 1389 1390 1391 1392 1394 1395 1397 1398 1401 1403 1405 1407 1409 1411
1386 1385 1384 1383 1382 1382 1381 1380 1379 1379 1378 1378 1377 1377 1376 1376 1375 1374 1374 1373 1372 1372 1371 1371 1371 1371 1371 1371 1371 1371 1371 1371 1371 1371 1371 1371 1372 1372 1373 1374 1375 1375 1376 1377 1378 1379 1380 1380 1381 1381 1382 1383 1384 1384 1385 1386 1387 1389 1390 1392 1393 1395 1397 1399 1401 1404 1406 1407 1409
1389 1388 1387 1386 1386 1385 1384 1383 1382 1382 1381 1381 1381 1380 1379 1378 1378 1377 1376 1376 1375 1375 1374 1374 1373 1373 1373 1373 1372 1372 1372 1372 1371 1371 1371 1371 1372 1372 1373 1373 1374 1375 1375 1376 1377 1378 1379 1380 1380 1381 1381 1381 1382 1382 1383 1384 1385 1386 1388 1390 1391 1394 1396 1398 1400 1402 1404 1406 1407
1392 1391 1390 1389 1389 1388 1387 1386 1385 1385 1384 1384 1383 1382 1382 1381 1381 1380 1379 1379 1378 1378 1377 1376 1376 1375 1375 1375 1374 1374 1374 1373 1373 1372 1372 1372 1372 1373 1373 1373 1374 1375 1375 1376 1376 1377 1378 1379 1380 1380 1381 1381 1381 1381 1382 1383 1384 1385 1386 1388 1390 1392 1395 1396 1398 1400 1402 1404 1405
1394 1394 1393 1392 1391 1390 1390 1389 1388 1387 1387 1386 1386 1385 1384 1384 1383 1383 1382 1381 1381 1380 1380 1379 1378 1378 1377 1377 1376 1376 1376 1376 1375 1374 1374 1373 1374 1374 1374 1374 1375 1375 1376 1376 1376 1377 1378 1379 1379 1380 1380 1381 1381 1381 1381 1382 1383 1384 1386 1387 1389 1391 1393 1395 1397 1399 1400 1402 1403
1396 1396 1395 1394 1393 1392 1392 1391 1391 1390 1389 1388 1388 1387 1387 1386 1386 1385 1384 1384 1383 1382 1382 1381 1381 1380 1380 1379 1379 1378 1378 1377 1377 1376 1376 1375 1375 1375 1375 1376 1376 1376 1376 1376 1377 1377 1378 1378 1379 1380 1380 1381 1381 1381 1381 1381 1382 1383 1385 1386 1388 1390 1392 1394 1396 1397 1398 1400 1401